Weather History for KSPG - July, 2013

Change the Weather History Date:

Wednesday, July 24, 2013

  Actual Average (KTPA) Record (KTPA)
Temperature  
Mean Temperature 84 °F 83 °F  
Max Temperature 88 °F 90 °F 96 °F (1987)
Min Temperature 82 °F 76 °F 65 °F (1913)
Degree Days  
Heating Degree Days 0 0  
Month to date heating degree days 0  
Since 1 June heating degree days 0  
Since 1 July heating degree days 0  
Cooling Degree Days 20 18  
Month to date cooling degree days 432  
Year to date cooling degree days 1825  
Since 1 June cooling degree days 948  
Growing Degree Days 34 (Base 50)    
Moisture  
Dew Point 76 °F    
Average Humidity 74    
Maximum Humidity 85    
Minimum Humidity 65    
Precipitation  
Precipitation 0.06 in 0.22 in 3.76 in (1945)
Month to date precipitation 5.50  
Year to date precipitation 24.38  
Sea Level Pressure  
Sea Level Pressure 29.95 in    
Wind  
Wind Speed 10 mph (West)    
Max Wind Speed 17 mph    
Max Gust Speed 24 mph    
Visibility 10 miles    
Events Rain    
T = Trace of Precipitation, MM = Missing Value Source: NWS Daily Summary

Daily Weather History Graph

Daily Weather History Graph

Search for Another Location

Airport or City:

Trip Planner

Search our weather history database for the weather conditions in past years. The results will help you decide how hot, cold, wet, or windy it might be!

Date:

Astronomy

Jul. 24, 2013 Rise Set
Actual Time 6:49 AM EDT 8:24 PM EDT
Civil Twilight 6:23 AM EDT 8:50 PM EDT
Nautical Twilight 5:52 AM EDT 9:20 PM EDT
Astronomical Twilight 5:20 AM EDT 9:52 PM EDT
Moon 9:49 PM EDT (7/24) 8:51 AM EDT (7/24)
Length of Visible Light 14h 26m
Length of Day
13h 35m
Waning Gibbous, 95% of the Moon is Illuminated
Jul 24
Waning Gibbous
Jul 29
Last Quarter
Aug 6
New
Aug 14
First Quarter
Aug 20
Full

Hourly Weather History & Observations

Time (EDT) Temp. Heat Index Dew Point Humidity Pressure Visibility Wind Dir Wind Speed Gust Speed Precip Events Conditions
12:53 AM 84.0 °F 92.6 °F 75.9 °F 76% 30.00 in 10.0 mi West 6.9 mph - N/A   Partly Cloudy
1:53 AM 82.9 °F 90.8 °F 75.9 °F 79% 29.96 in 10.0 mi West 5.8 mph - N/A   Clear
2:53 AM 82.9 °F 90.8 °F 75.9 °F 79% 29.94 in 10.0 mi West 6.9 mph - N/A   Partly Cloudy
3:53 AM 82.9 °F 90.8 °F 75.9 °F 79% 29.93 in 10.0 mi West 6.9 mph - N/A   Partly Cloudy
4:53 AM 82.9 °F 90.8 °F 75.9 °F 79% 29.93 in 10.0 mi West 5.8 mph - N/A   Clear
5:53 AM 82.9 °F 90.8 °F 75.9 °F 79% 29.93 in 10.0 mi West 9.2 mph - N/A   Clear
6:53 AM 82.9 °F 90.2 °F 75.0 °F 77% 29.94 in 10.0 mi West 12.7 mph - N/A   Partly Cloudy
7:53 AM 84.0 °F 92.6 °F 75.9 °F 76% 29.95 in 10.0 mi West 11.5 mph - 0.00 in Rain Light Rain
8:53 AM 84.9 °F 94.1 °F 75.9 °F 74% 29.97 in 10.0 mi West 13.8 mph 20.7 mph 0.00 in   Partly Cloudy
9:53 AM 84.9 °F 93.3 °F 75.0 °F 72% 29.97 in 10.0 mi West 17.3 mph - N/A   Partly Cloudy
10:53 AM 86.0 °F 96.0 °F 75.9 °F 72% 29.98 in 10.0 mi West 13.8 mph 21.9 mph N/A   Mostly Cloudy
11:01 AM 84.9 °F 93.3 °F 75.0 °F 72% 29.98 in 10.0 mi West 15.0 mph 23.0 mph 0.00 in Rain Light Rain
11:09 AM 86.0 °F 95.1 °F 75.0 °F 70% 29.98 in 10.0 mi WNW 12.7 mph 20.7 mph 0.00 in   Scattered Clouds
11:53 AM 86.0 °F 95.1 °F 75.0 °F 70% 29.98 in 10.0 mi West 12.7 mph 23.0 mph 0.00 in   Mostly Cloudy
12:53 PM 86.0 °F 95.1 °F 75.0 °F 70% 29.97 in 10.0 mi West 17.3 mph 24.2 mph N/A   Scattered Clouds
1:53 PM 87.1 °F 95.4 °F 73.9 °F 65% 29.96 in 10.0 mi WNW 11.5 mph 20.7 mph N/A   Mostly Cloudy
2:53 PM 87.1 °F 96.3 °F 75.0 °F 67% 29.95 in 10.0 mi West 12.7 mph 21.9 mph N/A   Mostly Cloudy
3:12 PM 87.1 °F 95.4 °F 73.9 °F 65% 29.95 in 10.0 mi WNW 11.5 mph 21.9 mph N/A   Mostly Cloudy
3:53 PM 87.1 °F 96.3 °F 75.0 °F 67% 29.94 in 10.0 mi WNW 13.8 mph - N/A   Mostly Cloudy
4:53 PM 86.0 °F 95.1 °F 75.0 °F 70% 29.91 in 10.0 mi WNW 16.1 mph - N/A   Mostly Cloudy
5:53 PM 86.0 °F 96.0 °F 75.9 °F 72% 29.91 in 10.0 mi West 15.0 mph - N/A   Mostly Cloudy
6:53 PM 86.0 °F 95.1 °F 75.0 °F 70% 29.91 in 10.0 mi West 11.5 mph 24.2 mph N/A   Scattered Clouds
7:53 PM 84.9 °F 93.3 °F 75.0 °F 72% 29.93 in 10.0 mi West 12.7 mph - N/A   Scattered Clouds
8:53 PM 84.9 °F 94.1 °F 75.9 °F 74% 29.93 in 10.0 mi West 10.4 mph - N/A   Scattered Clouds
9:53 PM 84.9 °F 94.1 °F 75.9 °F 74% 29.94 in 10.0 mi West 8.1 mph - N/A   Mostly Cloudy
10:30 PM 82.9 °F 92.8 °F 78.1 °F 85% 29.94 in 10.0 mi West 11.5 mph - 0.06 in   Overcast
10:43 PM 84.0 °F 93.7 °F 77.0 °F 79% 29.94 in 10.0 mi West 9.2 mph - 0.06 in   Mostly Cloudy
10:53 PM 84.0 °F 94.8 °F 78.1 °F 82% 29.94 in 10.0 mi West 8.1 mph - 0.06 in   Partly Cloudy
11:53 PM 84.0 °F 92.6 °F 75.9 °F 76% 29.93 in 10.0 mi West 5.8 mph - N/A   Partly Cloudy